Regional Weather Roundup
Issued by NWS

Home | Current Version | Previous Version | Text Only | Print | Product List | Glossary On
Versions: 1 2 3 4 5 6 7 8 9 10 11 12 13 14 15 16 17 18 19 20 21 22 23 24 25 26 27 28 29 30 31 32 33 34 35 36 37 38 39 40 41 42 43 44 45 46 47 48 49 50
000
ASUS43 KDTX 220001
RWRMI
MICHIGAN HOURLY REGIONAL WEATHER ROUNDUP
NATIONAL WEATHER SERVICE DETROIT/PONTIAC MI
800 PM EDT SAT OCT 21 2017

NOTE: "FAIR" INDICATES FEW OR NO CLOUDS BELOW 12,000 FEET WITH NO
SIGNIFICANT WEATHER AND/OR OBSTRUCTION TO VISIBILITY.

MIZ047>049-052>055-059>063-066>070-074>076-081>083-220100-
SOUTHEAST LOWER MICHIGAN

CITY           SKY/WX    TMP DP  RH WIND       PRES   REMARKS
ADRIAN         MOCLDY    64  48  56 S5        30.17R
6HR MIN TEMP:  64; 6HR MAX TEMP:  74;

ALMA           PTCLDY    65  43  44 SW7       30.11R
ANN ARBOR      PTCLDY    64  55  72 SE3       30.16R
BAD AXE        PTCLDY    65  52  63 S10       30.15S
CARO           CLOUDY    67  52  58 SE8       30.13S
DETROIT CITY   MOCLDY    64  52  64 SE6       30.18R
6HR MIN TEMP:  64; 6HR MAX TEMP:  72;

DETROIT        CLOUDY    65  54  67 SE3       30.18R
6HR MIN TEMP:  65; 6HR MAX TEMP:  73;

FLINT          MOCLDY    62  53  72 S8        30.14R
6HR MIN TEMP:  62; 6HR MAX TEMP:  74;

GROSSE ILE     MOCLDY    67  53  61 SE7       30.17R
6HR MIN TEMP:  64; 6HR MAX TEMP:  69;

HILLSDALE      CLOUDY    64  45  48 SE5       30.15S
HOWELL         PTCLDY    64  52  65 SE8       30.15S
6HR MIN TEMP:  64; 6HR MAX TEMP:  74;


CITY           SKY/WX    TMP DP  RH WIND       PRES   REMARKS
JACKSON        CLOUDY    66  49  54 SE6       30.15R
6HR MIN TEMP:  66; 6HR MAX TEMP:  74;

LAMBERTVILLE   PTCLDY    61  55  81 CALM      30.16S
6HR MIN TEMP:  61; 6HR MAX TEMP:  77;

LANSING        CLOUDY    67  47  48 S9        30.13R
6HR MIN TEMP:  67; 6HR MAX TEMP:  76;

LAPEER         FAIR      65  53  64 S6        30.16R
6HR MIN TEMP:  65; 6HR MAX TEMP:  73;

MASON          MOCLDY    66  50  56 SE7       30.13S
MONROE         MOCLDY    62  55  76 S5        30.16S
6HR MIN TEMP:  62; 6HR MAX TEMP:  74;

PONTIAC        MOCLDY    65  54  67 SE6       30.16R
6HR MIN TEMP:  65; 6HR MAX TEMP:  72;

PORT HOPE        N/A     67  52  58 S9        30.12S
6HR MIN TEMP:  65; 6HR MAX TEMP:  74;

PORT HURON     CLOUDY    64  52  63 SE6       30.19S
TRI CITIES     PTCLDY    69  50  50 S10       30.12R
6HR MIN TEMP:  69; 6HR MAX TEMP:  77;

MIDLAND        FAIR      70  47  43 S6        30.10R
6HR MIN TEMP:  70; 6HR MAX TEMP:  79;

TROY           MOCLDY    66  52  60 CALM      30.19S
SAGINAW HB     PTCLDY    66  50  55 S9        30.12R
$$
MIZ043>046-050>051-056>058-064>065-071>073-077>080-220100-
SOUTHWEST LOWER MICHIGAN

CITY           SKY/WX    TMP DP  RH WIND       PRES   REMARKS
BATTLE CREEK   MOCLDY    67  42  40 S7        30.13R
6HR MIN TEMP:  67; 6HR MAX TEMP:  75;

BENTON HARBOR  CLOUDY    70  53  54 SE10      30.06R
6HR MIN TEMP:  70; 6HR MAX TEMP:  75;

BIG RAPIDS     MOCLDY    65  43  44 SE3       30.07R
6HR MIN TEMP:  65; 6HR MAX TEMP:  73;

COLDWATER      CLOUDY    66  41  39 SE6       30.13S
6HR MIN TEMP:  66; 6HR MAX TEMP:  75;

FREMONT        FAIR      67  48  52 SE6       30.05S
6HR MIN TEMP:  66; 6HR MAX TEMP:  74;

HOLLAND        PTCLDY    68  52  56 SE10      30.07R
6HR MIN TEMP:  68; 6HR MAX TEMP:  75; 6HR PCP: TRACE;

GRAND RAPIDS   CLOUDY    66  47  50 SE10      30.08R
6HR MIN TEMP:  63; 6HR MAX TEMP:  76;

IONIA          FAIR      64  44  47 S9        30.10R
6HR MIN TEMP:  64; 6HR MAX TEMP:  76;

KALAMAZOO      CLOUDY    69  48  47 S6        30.11R
6HR MIN TEMP:  68; 6HR MAX TEMP:  75;

LUDINGTON      CLEAR     68  53  58 S9        30.01R
6HR MIN TEMP:  68; 6HR MAX TEMP:  73;

MARSHALL       CLOUDY    67  45  45 SE6       30.12S
6HR MIN TEMP:  66; 6HR MAX TEMP:  75;

MOUNT PLEASANT MOCLDY    69  41  35 S5        30.09S
6HR MIN TEMP:  69; 6HR MAX TEMP:  78;

MUSKEGON       MOCLDY    70  52  52 SE8       30.05R
6HR MIN TEMP:  70; 6HR MAX TEMP:  75;

SOUTH HAVEN    PTCLDY    71  53  52 S8        30.06S
$$
MIZ016>042-220100-
NORTHERN LOWER MICHIGAN

CITY           SKY/WX    TMP DP  RH WIND       PRES   REMARKS
ALPENA         PTCLDY    64  50  60 SW3       30.08R
6HR MIN TEMP:  63; 6HR MAX TEMP:  76;

BEAVER ISLAND  CLEAR     67  45  45 SE7       29.99R
6HR MIN TEMP:  64; 6HR MAX TEMP:  72;

BELLAIRE       CLEAR     63  43  48 CALM      30.03R
6HR MIN TEMP:  63; 6HR MAX TEMP:  75;

CADILLAC       MOCLDY    66  40  38 SE6       30.06S
CHARLEVOIX     CLEAR     67  40  38 SE5       30.03F
FRANKFORT      CLEAR     69  55  59 S8        30.00S
GAYLORD        PTCLDY    64  40  41 S12       30.06S
6HR MIN TEMP:  63; 6HR MAX TEMP:  73;

GRAYLING       CLOUDY    64  40  42 S5        30.08S
6HR MIN TEMP:  64; 6HR MAX TEMP:  74;

HARBOR SPRINGS CLEAR     67  36  32 S3        30.03R
HOUGHTON LAKE  PTCLDY    64  43  46 S6        30.09S
6HR MIN TEMP:  63; 6HR MAX TEMP:  73;

MANISTEE       CLEAR     67  55  65 E6        30.00S
OSCODA         PTCLDY    68  49  50 S12G20    30.09S
6HR MIN TEMP:  67; 6HR MAX TEMP:  73;

PELLSTON       CLEAR     64  42  44 S7        30.02S
6HR MIN TEMP:  56; 6HR MAX TEMP:  75;

ROGERS CITY    MOCLDY    66  47  50 S8        30.06R
TRAVERSE CITY  PTCLDY    69  47  45 VRB3      30.00S
6HR MIN TEMP:  69; 6HR MAX TEMP:  77;

$$
MIZ007>008-015-220100-
EASTERN UPPER MICHIGAN

CITY           SKY/WX    TMP DP  RH WIND       PRES   REMARKS
KINROSS        CLEAR     56  50  80 SE9       30.01R
6HR MIN TEMP:  56; 6HR MAX TEMP:  70;

MACKINAC ISLAN CLEAR     67  41  38 S10G18    30.01S
6HR MIN TEMP:  65; 6HR MAX TEMP:  72;

NEWBERRY       PTCLDY    61  46  58 S8        29.96S
6HR MIN TEMP:  61; 6HR MAX TEMP:  67;

S. S. MARIE    CLEAR     58  53  84 E6        30.00S
6HR MIN TEMP:  58; 6HR MAX TEMP:  69;

MUNISING         N/A     62  55  77 S13G28    29.88R
6HR MIN TEMP:  62; 6HR MAX TEMP:  70;

$$
MIZ004>006-011>014-085-220100-
CENTRAL UPPER MICHIGAN

CITY           SKY/WX    TMP DP  RH WIND       PRES   REMARKS
MANISTIQUE     CLEAR     62  55  79 S15G24    29.96S
6HR MIN TEMP:  59; 6HR MAX TEMP:  64;

ESCANABA       CLEAR     59  55  87 S12       29.93S
6HR MIN TEMP:  59; 6HR MAX TEMP:  64;

MENOMINEE      CLEAR     62  55  77 S10       29.92S
6HR MIN TEMP:  62; 6HR MAX TEMP:  70;

SAWYER-GWINN   CLEAR     59  52  77 S18       29.89R
$$
MIZ001>003-009>011-084-220100-
WESTERN UPPER MICHIGAN

CITY           SKY/WX    TMP DP  RH WIND       PRES   REMARKS
IRON MOUNTAIN  CLEAR     63  51  65 SE9       29.87R
6HR MIN TEMP:  63; 6HR MAX TEMP:  74;

HOUGHTON       CLOUDY    68  56  65 S5        29.78R
6HR MIN TEMP:  63; 6HR MAX TEMP:  71; 6HR PCP:  0.03;

COPPER HARBOR    N/A     63  54  72 VRB5      29.78R
6HR MIN TEMP:  60; 6HR MAX TEMP:  69; 6HR PCP:  0.02;

IRONWOOD       CLOUDY    67  58  72 S12G20    29.77R
6HR MIN TEMP:  63; 6HR MAX TEMP:  67; 6HR PCP: TRACE;

$$

ABBREVIATIONS USED IN REMARKS
   TC - TEMPERATURE IN CELSIUS
  WCI - WIND CHILL INDEX
   HX - HEAT INDEX
  VSB - VISIBILITY





USA.gov is the U.S. government's official web portal to all federal, state and local government web resources and services.